EXS37HU EGNT-GCLP

Flight info

Callsign EXS37HU
Flight time 4h 17m
Altitude 39000
Route GIRLI P18 GASKO P16 RIBEL DCT GUNTU UL70 PENIL M144 BAGSO DCT KLY DCT ABAGU DCT LILNO/M080F390 DCT OMOKO T16 NAVIX/N0454F390 DCT IRSAN DCT ORTIS
Aircraft B738/M-SDE2E3FGHIRWXY/LB1

Departure

Time 2026-04-28 14:05
Airport Newcastle International Airport (EGNT)

Arrival

Time 2026-04-28 18:22
Airport Gran Canaria Airport (GCLP)
Time Latitude Longitude Altitude Speed Heading
2026-04-28 13:02 55.03735 -1.70761 266 ft 0 kts 184°
2026-04-28 13:55 55.03753 -1.70758 266 ft 4 kts 184°
2026-04-28 13:55 55.03777 -1.70755 266 ft 2 kts 184°
2026-04-28 13:56 55.03799 -1.70746 266 ft 4 kts 228°
2026-04-28 13:56 55.03807 -1.70707 266 ft 4 kts 273°
2026-04-28 13:56 55.03805 -1.70663 266 ft 4 kts 274°
2026-04-28 13:56 55.03803 -1.70616 266 ft 4 kts 274°
2026-04-28 13:57 55.03801 -1.70569 266 ft 4 kts 274°
2026-04-28 13:57 55.03799 -1.70522 266 ft 4 kts 274°
2026-04-28 13:57 55.03797 -1.70478 266 ft 4 kts 271°
2026-04-28 13:57 55.03801 -1.70434 266 ft 4 kts 242°
2026-04-28 13:58 55.03818 -1.70402 266 ft 4 kts 202°
2026-04-28 13:58 55.03843 -1.70392 266 ft 4 kts 183°
2026-04-28 13:58 55.03869 -1.70389 266 ft 4 kts 184°
2026-04-28 13:58 55.03883 -1.70388 266 ft 1 kts 184°
2026-04-28 14:00 55.03844 -1.70392 266 ft 13 kts 184°
2026-04-28 14:00 55.03728 -1.70436 266 ft 15 kts 187°
2026-04-28 14:01 55.03629 -1.70452 266 ft 14 kts 204°
2026-04-28 14:01 55.03588 -1.70598 266 ft 13 kts 250°
2026-04-28 14:01 55.03539 -1.70641 266 ft 1 kts 183°
2026-04-28 14:01 55.03532 -1.70642 266 ft 1 kts 183°
2026-04-28 14:02 55.03525 -1.70642 266 ft 1 kts 182°
2026-04-28 14:02 55.03519 -1.70643 266 ft 1 kts 182°
2026-04-28 14:02 55.03504 -1.70644 266 ft 5 kts 182°
2026-04-28 14:02 55.03449 -1.70648 267 ft 11 kts 182°
2026-04-28 14:03 55.03391 -1.70572 266 ft 12 kts 101°
2026-04-28 14:03 55.03399 -1.70463 266 ft 0 kts 66°
2026-04-28 14:04 55.03399 -1.70460 266 ft 1 kts 66°
2026-04-28 14:04 55.03469 -1.70193 263 ft 58 kts 65°
2026-04-28 14:04 55.03738 -1.69185 253 ft 123 kts 65°
2026-04-28 14:04 55.04172 -1.67562 378 ft 163 kts 65°
2026-04-28 14:05 55.04678 -1.65756 1120 ft 166 kts 65°
2026-04-28 14:05 55.05183 -1.63930 1960 ft 170 kts 64°
2026-04-28 14:05 55.05722 -1.61952 2392 ft 192 kts 64°
2026-04-28 14:05 55.06317 -1.59790 2898 ft 200 kts 65°
2026-04-28 14:06 55.06633 -1.57438 3444 ft 207 kts 95°
2026-04-28 14:06 55.06095 -1.55043 3965 ft 221 kts 126°
2026-04-28 14:06 55.04792 -1.53356 4231 ft 253 kts 161°
2026-04-28 14:06 55.02995 -1.53084 4854 ft 265 kts 178°
2026-04-28 14:07 55.01132 -1.53138 5579 ft 271 kts 178°
2026-04-28 14:07 54.99239 -1.53182 6376 ft 274 kts 177°
2026-04-28 14:07 54.97325 -1.53517 7092 ft 284 kts 196°
2026-04-28 14:07 54.95550 -1.55116 7839 ft 289 kts 208°
2026-04-28 14:08 54.93816 -1.56930 8301 ft 292 kts 208°
2026-04-28 14:08 54.92057 -1.58778 8509 ft 298 kts 208°
2026-04-28 14:08 54.90277 -1.60640 8499 ft 298 kts 208°
2026-04-28 14:08 54.88506 -1.62482 8504 ft 296 kts 208°
2026-04-28 14:09 54.86742 -1.64306 8495 ft 294 kts 208°
2026-04-28 14:09 54.84987 -1.66113 8495 ft 293 kts 208°
2026-04-28 14:09 54.83236 -1.67910 8502 ft 292 kts 208°
2026-04-28 14:09 54.81489 -1.69700 8504 ft 292 kts 208°
2026-04-28 14:10 54.79739 -1.71491 8498 ft 292 kts 208°
2026-04-28 14:10 54.77990 -1.73278 8502 ft 293 kts 208°
2026-04-28 14:10 54.76230 -1.75074 8507 ft 294 kts 208°
2026-04-28 14:10 54.74466 -1.76872 8496 ft 295 kts 208°
2026-04-28 14:11 54.72694 -1.78675 8507 ft 296 kts 207°
2026-04-28 14:11 54.70885 -1.80375 8483 ft 295 kts 196°
2026-04-28 14:11 54.68924 -1.81145 8762 ft 294 kts 185°
2026-04-28 14:11 54.66890 -1.81726 9519 ft 296 kts 186°
2026-04-28 14:12 54.64849 -1.82334 10296 ft 300 kts 186°
2026-04-28 14:12 54.62776 -1.82969 10834 ft 310 kts 186°
2026-04-28 14:12 54.60576 -1.83654 10998 ft 333 kts 187°
2026-04-28 14:12 54.58223 -1.84398 11190 ft 353 kts 187°
2026-04-28 14:13 54.55765 -1.85180 11623 ft 364 kts 187°
2026-04-28 14:13 54.53256 -1.85980 12251 ft 368 kts 187°
2026-04-28 14:13 54.50722 -1.86778 12937 ft 372 kts 187°
2026-04-28 14:13 54.48165 -1.87578 13596 ft 377 kts 187°
2026-04-28 14:14 54.45567 -1.88390 14266 ft 381 kts 187°
2026-04-28 14:14 54.42952 -1.89205 14830 ft 385 kts 187°
2026-04-28 14:14 54.40298 -1.90034 15408 ft 389 kts 187°
2026-04-28 14:14 54.37622 -1.90872 15999 ft 393 kts 187°
2026-04-28 14:15 54.34927 -1.91717 16579 ft 396 kts 186°
2026-04-28 14:15 54.32200 -1.92572 17120 ft 401 kts 186°
2026-04-28 14:15 54.29438 -1.93435 17676 ft 405 kts 186°
2026-04-28 14:15 54.26653 -1.94304 18243 ft 409 kts 187°
2026-04-28 14:16 54.23882 -1.95588 18761 ft 418 kts 199°
2026-04-28 14:16 54.21272 -1.97868 19301 ft 424 kts 211°
2026-04-28 14:16 54.18949 -2.00988 19862 ft 428 kts 221°
2026-04-28 14:16 54.16780 -2.04502 20318 ft 432 kts 223°
2026-04-28 14:17 54.14608 -2.08096 20729 ft 438 kts 223°
2026-04-28 14:17 54.12407 -2.11714 21174 ft 441 kts 222°
2026-04-28 14:17 54.10176 -2.15335 21581 ft 446 kts 222°
2026-04-28 14:17 54.07904 -2.18976 22003 ft 450 kts 222°
2026-04-28 14:18 54.05612 -2.22627 22463 ft 453 kts 221°
2026-04-28 14:18 54.03305 -2.26291 22903 ft 456 kts 221°
2026-04-28 14:18 54.01018 -2.30049 23319 ft 460 kts 226°
2026-04-28 14:18 53.98927 -2.34193 23733 ft 463 kts 230°
2026-04-28 14:19 53.96907 -2.38489 24165 ft 467 kts 231°
2026-04-28 14:19 53.94896 -2.42842 24469 ft 471 kts 231°
2026-04-28 14:19 53.92864 -2.47223 24785 ft 474 kts 231°
2026-04-28 14:19 53.90806 -2.51615 25151 ft 477 kts 231°
2026-04-28 14:20 53.88721 -2.56016 25503 ft 479 kts 230°
2026-04-28 14:20 53.87332 -2.58927 25729 ft 481 kts 230°
2026-04-28 14:20 53.85217 -2.63336 26045 ft 483 kts 230°
2026-04-28 14:20 53.83092 -2.67751 26419 ft 484 kts 230°
2026-04-28 14:21 53.80962 -2.72167 26760 ft 486 kts 230°
2026-04-28 14:21 53.78113 -2.78066 27158 ft 490 kts 230°
2026-04-28 14:21 53.76651 -2.81086 27366 ft 492 kts 230°
2026-04-28 14:21 53.73774 -2.87026 27755 ft 495 kts 230°
2026-04-28 14:22 53.72301 -2.90062 27959 ft 497 kts 230°
2026-04-28 14:22 53.70104 -2.94584 28287 ft 499 kts 230°
2026-04-28 14:22 53.67892 -2.99129 28468 ft 504 kts 230°
2026-04-28 14:22 53.65655 -3.03720 28690 ft 508 kts 230°
2026-04-28 14:23 53.63410 -3.08314 29004 ft 509 kts 230°
2026-04-28 14:23 53.61409 -3.13235 29242 ft 511 kts 244°
2026-04-28 14:23 53.60169 -3.18814 29579 ft 508 kts 259°
2026-04-28 14:23 53.59656 -3.24587 29874 ft 503 kts 272°
2026-04-28 14:24 53.59846 -3.30430 30112 ft 500 kts 280°
2026-04-28 14:24 53.60188 -3.36276 30351 ft 503 kts 280°
2026-04-28 14:24 53.60502 -3.41868 30599 ft 504 kts 279°
2026-04-28 14:24 53.60761 -3.46961 30877 ft 503 kts 279°
2026-04-28 14:25 53.61024 -3.52716 31228 ft 502 kts 278°
2026-04-28 14:25 53.61273 -3.58563 31539 ft 501 kts 278°
2026-04-28 14:25 53.61518 -3.64421 31779 ft 502 kts 278°
2026-04-28 14:25 53.61765 -3.70269 32111 ft 500 kts 279°
2026-04-28 14:26 53.62015 -3.76090 32465 ft 498 kts 279°
2026-04-28 14:26 53.62267 -3.81907 32741 ft 498 kts 279°
2026-04-28 14:26 53.62517 -3.87726 32965 ft 499 kts 279°
2026-04-28 14:26 53.62763 -3.93544 33206 ft 499 kts 279°
2026-04-28 14:27 53.62999 -3.99371 33492 ft 498 kts 278°
2026-04-28 14:27 53.63228 -4.05202 33781 ft 497 kts 278°
2026-04-28 14:27 53.63452 -4.11003 34037 ft 497 kts 278°
2026-04-28 14:27 53.63672 -4.16828 34237 ft 497 kts 278°
2026-04-28 14:28 53.63887 -4.22604 34621 ft 493 kts 278°
2026-04-28 14:28 53.64099 -4.28356 34942 ft 490 kts 278°
2026-04-28 14:28 53.64309 -4.34093 35100 ft 491 kts 278°
2026-04-28 14:28 53.64515 -4.39845 35230 ft 492 kts 278°
2026-04-28 14:29 53.64717 -4.45608 35415 ft 492 kts 278°
2026-04-28 14:29 53.64915 -4.51363 35655 ft 491 kts 278°
2026-04-28 14:29 53.65110 -4.57091 35879 ft 490 kts 278°
2026-04-28 14:29 53.65304 -4.62819 36077 ft 489 kts 278°
2026-04-28 14:30 53.65495 -4.68532 36260 ft 488 kts 277°
2026-04-28 14:30 53.65681 -4.74154 36533 ft 485 kts 277°
2026-04-28 14:30 53.65866 -4.79815 36796 ft 483 kts 277°
2026-04-28 14:30 53.66048 -4.85473 36921 ft 484 kts 277°
2026-04-28 14:31 53.66424 -4.96836 37177 ft 485 kts 277°
2026-04-28 14:31 53.66610 -5.02498 37360 ft 484 kts 277°
2026-04-28 14:31 53.66795 -5.08186 37449 ft 486 kts 277°
2026-04-28 14:32 53.67152 -5.19629 37470 ft 492 kts 277°
2026-04-28 14:32 53.67481 -5.31175 37454 ft 493 kts 276°
2026-04-28 14:33 53.67730 -5.42743 37438 ft 496 kts 268°
2026-04-28 14:33 53.66970 -5.48408 37476 ft 497 kts 249°
2026-04-28 14:33 53.65357 -5.53553 37428 ft 496 kts 232°
2026-04-28 14:34 53.60481 -5.61604 37467 ft 491 kts 219°
2026-04-28 14:34 53.57884 -5.65337 37466 ft 491 kts 219°
2026-04-28 14:35 53.52695 -5.72816 37451 ft 492 kts 219°
2026-04-28 14:35 53.47541 -5.80390 37458 ft 493 kts 220°
2026-04-28 14:36 53.42423 -5.87959 37455 ft 494 kts 220°
2026-04-28 14:36 53.37249 -5.95586 37456 ft 496 kts 219°
2026-04-28 14:37 53.32056 -6.03208 37437 ft 497 kts 219°
2026-04-28 14:37 53.26870 -6.10887 37433 ft 499 kts 224°
2026-04-28 14:38 53.22364 -6.19743 37431 ft 501 kts 231°
2026-04-28 14:38 53.18058 -6.28875 37426 ft 501 kts 231°
2026-04-28 14:39 53.13715 -6.37950 37422 ft 500 kts 231°
2026-04-28 14:39 53.09337 -6.46938 37432 ft 499 kts 230°
2026-04-28 14:40 53.04952 -6.55866 37431 ft 498 kts 230°
2026-04-28 14:40 53.00568 -6.64761 37419 ft 496 kts 230°
2026-04-28 14:41 52.96204 -6.73594 37409 ft 494 kts 230°
2026-04-28 14:41 52.91848 -6.82381 37414 ft 493 kts 230°
2026-04-28 14:42 52.87499 -6.91125 37412 ft 491 kts 230°
2026-04-28 14:42 52.83149 -6.99839 37414 ft 491 kts 230°
2026-04-28 14:43 52.78798 -7.08524 37404 ft 490 kts 230°
2026-04-28 14:43 52.74443 -7.17189 37413 ft 490 kts 230°
2026-04-28 14:44 52.70109 -7.25782 37409 ft 491 kts 230°
2026-04-28 14:44 52.65734 -7.34427 37406 ft 491 kts 230°
2026-04-28 14:45 52.61350 -7.43061 37396 ft 492 kts 230°
2026-04-28 14:45 52.56947 -7.51703 37381 ft 493 kts 230°
2026-04-28 14:46 52.52543 -7.60322 37399 ft 493 kts 230°
2026-04-28 14:46 52.48089 -7.68877 37396 ft 493 kts 227°
2026-04-28 14:47 52.43426 -7.77135 37396 ft 493 kts 226°
2026-04-28 14:47 52.38725 -7.85316 37389 ft 493 kts 226°
2026-04-28 14:48 52.34043 -7.93524 37391 ft 493 kts 227°
2026-04-28 14:48 52.29374 -8.01740 37384 ft 492 kts 227°
2026-04-28 14:49 52.24718 -8.09920 37384 ft 492 kts 226°
2026-04-28 14:49 52.20054 -8.18086 37380 ft 491 kts 227°
2026-04-28 14:50 52.15427 -8.26155 37376 ft 491 kts 226°
2026-04-28 14:50 52.10762 -8.34263 37374 ft 490 kts 226°
2026-04-28 14:51 52.06100 -8.42340 37367 ft 489 kts 226°
2026-04-28 14:51 52.01438 -8.50390 37350 ft 489 kts 226°
2026-04-28 14:52 51.96782 -8.58404 37368 ft 488 kts 226°
2026-04-28 14:52 51.92120 -8.66402 37351 ft 488 kts 226°
2026-04-28 14:53 51.87453 -8.74384 37357 ft 488 kts 226°
2026-04-28 14:53 51.82780 -8.82350 37358 ft 488 kts 226°
2026-04-28 14:54 51.78101 -8.90300 37355 ft 488 kts 226°
2026-04-28 14:54 51.73421 -8.98228 37370 ft 487 kts 226°
2026-04-28 14:55 51.68742 -9.06127 37395 ft 487 kts 226°
2026-04-28 14:55 51.64050 -9.14029 37382 ft 488 kts 226°
2026-04-28 14:56 51.59341 -9.21793 37354 ft 487 kts 221°
2026-04-28 14:56 51.53871 -9.28135 37381 ft 485 kts 212°
2026-04-28 14:57 51.48213 -9.34077 37374 ft 485 kts 212°
2026-04-28 14:57 51.42561 -9.40047 37394 ft 485 kts 212°
2026-04-28 14:58 51.36983 -9.45998 37378 ft 484 kts 212°
2026-04-28 14:58 51.31386 -9.51983 37378 ft 484 kts 212°
2026-04-28 14:59 51.25787 -9.57955 37344 ft 484 kts 212°
2026-04-28 14:59 51.20196 -9.63897 37355 ft 483 kts 212°
2026-04-28 15:00 51.14598 -9.69826 37357 ft 483 kts 212°
2026-04-28 15:00 51.08992 -9.75746 37356 ft 483 kts 212°
2026-04-28 15:01 51.03391 -9.81644 37356 ft 483 kts 212°
2026-04-28 15:01 50.97786 -9.87528 37351 ft 483 kts 212°
2026-04-28 15:02 50.92172 -9.93404 37350 ft 483 kts 212°
2026-04-28 15:02 50.86561 -9.99260 37349 ft 484 kts 212°
2026-04-28 15:03 50.80930 -10.05120 37350 ft 484 kts 212°
2026-04-28 15:03 50.75290 -10.10971 37348 ft 485 kts 212°
2026-04-28 15:04 50.69644 -10.16812 37349 ft 486 kts 212°
2026-04-28 15:04 50.63986 -10.22649 37348 ft 486 kts 212°
2026-04-28 15:05 50.58321 -10.28475 37331 ft 487 kts 212°
2026-04-28 15:05 50.52651 -10.34290 37347 ft 486 kts 212°
2026-04-28 15:06 50.47021 -10.40046 37338 ft 486 kts 212°
2026-04-28 15:06 50.41315 -10.45864 37340 ft 485 kts 212°
2026-04-28 15:07 50.35693 -10.51579 37336 ft 485 kts 212°
2026-04-28 15:07 50.30033 -10.57316 37333 ft 485 kts 212°
2026-04-28 15:08 50.24373 -10.63038 37313 ft 484 kts 212°
2026-04-28 15:08 50.18722 -10.68734 37323 ft 483 kts 212°
2026-04-28 15:09 50.13077 -10.74407 37333 ft 482 kts 212°
2026-04-28 15:09 50.07437 -10.80059 37322 ft 482 kts 212°
2026-04-28 15:10 50.01806 -10.85686 37323 ft 481 kts 212°
2026-04-28 15:10 49.96174 -10.91298 37318 ft 481 kts 212°
2026-04-28 15:11 49.90541 -10.96896 37303 ft 480 kts 212°
2026-04-28 15:11 49.84911 -11.02474 37313 ft 480 kts 212°
2026-04-28 15:12 49.79284 -11.08034 37309 ft 480 kts 212°
2026-04-28 15:12 49.74598 -11.12653 37307 ft 480 kts 212°
2026-04-28 15:13 49.68046 -11.19093 37305 ft 480 kts 212°
2026-04-28 15:13 49.63324 -11.23721 37316 ft 481 kts 212°
2026-04-28 15:14 49.57662 -11.29256 37285 ft 481 kts 211°
2026-04-28 15:14 49.52005 -11.34771 37302 ft 481 kts 211°
2026-04-28 15:15 49.46349 -11.40270 37288 ft 481 kts 211°
2026-04-28 15:15 49.40687 -11.45760 37294 ft 481 kts 211°
2026-04-28 15:16 49.35050 -11.51210 37293 ft 482 kts 211°
2026-04-28 15:16 49.29373 -11.56683 37287 ft 481 kts 211°
2026-04-28 15:17 49.23706 -11.62133 37278 ft 481 kts 211°
2026-04-28 15:17 49.18041 -11.67565 37280 ft 480 kts 211°
2026-04-28 15:18 49.12389 -11.72970 37285 ft 479 kts 211°
2026-04-28 15:18 49.06736 -11.78362 37277 ft 478 kts 211°
2026-04-28 15:19 49.01106 -11.83718 37281 ft 477 kts 211°
2026-04-28 15:19 48.95478 -11.89057 37272 ft 476 kts 211°
2026-04-28 15:20 48.89859 -11.94375 37282 ft 475 kts 211°
2026-04-28 15:20 48.84225 -11.99637 37264 ft 474 kts 207°
2026-04-28 15:21 48.78166 -12.03426 37273 ft 471 kts 198°
2026-04-28 15:21 48.71994 -12.06769 37276 ft 470 kts 198°
2026-04-28 15:22 48.65844 -12.10128 37276 ft 470 kts 199°
2026-04-28 15:22 48.59696 -12.13534 37258 ft 471 kts 199°
2026-04-28 15:23 48.53550 -12.16954 37259 ft 471 kts 199°
2026-04-28 15:23 48.47406 -12.20367 37253 ft 470 kts 199°
2026-04-28 15:24 48.41306 -12.23744 37259 ft 470 kts 199°
2026-04-28 15:24 48.35161 -12.27137 37248 ft 470 kts 199°
2026-04-28 15:25 48.29016 -12.30520 37253 ft 470 kts 199°
2026-04-28 15:25 48.22875 -12.33892 37251 ft 470 kts 199°
2026-04-28 15:26 48.16737 -12.37254 37253 ft 470 kts 199°
2026-04-28 15:26 48.10586 -12.40615 37249 ft 470 kts 199°
2026-04-28 15:27 48.04446 -12.43961 37233 ft 470 kts 199°
2026-04-28 15:27 47.98309 -12.47297 37242 ft 469 kts 199°
2026-04-28 15:28 47.92179 -12.50620 37240 ft 469 kts 199°
2026-04-28 15:28 47.86040 -12.53940 37237 ft 469 kts 199°
2026-04-28 15:29 47.79906 -12.57249 37236 ft 468 kts 199°
2026-04-28 15:29 47.73825 -12.60521 37245 ft 468 kts 199°
2026-04-28 15:30 47.67707 -12.63805 37226 ft 468 kts 198°
2026-04-28 15:30 47.61580 -12.67086 37226 ft 467 kts 198°
2026-04-28 15:31 47.55467 -12.70351 37230 ft 467 kts 198°
2026-04-28 15:31 47.49361 -12.73604 37228 ft 466 kts 198°
2026-04-28 15:32 47.43333 -12.76807 37219 ft 466 kts 198°
2026-04-28 15:32 47.37231 -12.80043 37218 ft 466 kts 198°
2026-04-28 15:33 47.31128 -12.83270 37208 ft 465 kts 198°
2026-04-28 15:33 47.25036 -12.86484 37216 ft 465 kts 198°
2026-04-28 15:34 47.19031 -12.89644 37205 ft 465 kts 198°
2026-04-28 15:34 47.12974 -12.92825 37207 ft 465 kts 198°
2026-04-28 15:35 47.06880 -12.96016 37211 ft 465 kts 198°
2026-04-28 15:35 46.97728 -13.00795 37202 ft 466 kts 198°
2026-04-28 15:36 46.91617 -13.03976 37200 ft 466 kts 198°
2026-04-28 15:36 46.85507 -13.07149 37190 ft 466 kts 198°
2026-04-28 15:37 46.79390 -13.10318 37187 ft 467 kts 198°
2026-04-28 15:37 46.74297 -13.12950 37185 ft 467 kts 198°
2026-04-28 15:38 46.67127 -13.16648 37189 ft 467 kts 198°
2026-04-28 15:38 46.61003 -13.19797 37189 ft 467 kts 198°
2026-04-28 15:39 46.54875 -13.22942 37175 ft 467 kts 198°
2026-04-28 15:39 46.48788 -13.26057 37177 ft 467 kts 198°
2026-04-28 15:40 46.42655 -13.29189 37172 ft 467 kts 198°
2026-04-28 15:40 46.36525 -13.32312 37173 ft 467 kts 198°
2026-04-28 15:41 46.30397 -13.35426 37168 ft 466 kts 198°
2026-04-28 15:41 46.24279 -13.38528 37161 ft 466 kts 198°
2026-04-28 15:42 46.18161 -13.41622 37176 ft 465 kts 198°
2026-04-28 15:42 46.12041 -13.44711 37173 ft 465 kts 197°
2026-04-28 15:43 46.05971 -13.47766 37163 ft 465 kts 197°
2026-04-28 15:43 45.99863 -13.50834 37155 ft 464 kts 197°
2026-04-28 15:44 45.93802 -13.53871 37161 ft 464 kts 197°
2026-04-28 15:44 45.87707 -13.56918 37159 ft 463 kts 197°
2026-04-28 15:45 45.81623 -13.59952 37152 ft 463 kts 197°
2026-04-28 15:45 45.75530 -13.62984 37152 ft 463 kts 197°
2026-04-28 15:46 45.69444 -13.66006 37146 ft 463 kts 197°
2026-04-28 15:46 45.63355 -13.69021 37144 ft 462 kts 197°
2026-04-28 15:47 45.57315 -13.72006 37136 ft 462 kts 197°
2026-04-28 15:47 45.51240 -13.75001 37143 ft 462 kts 197°
2026-04-28 15:48 45.45172 -13.77987 37130 ft 461 kts 197°
2026-04-28 15:48 45.39094 -13.80970 37134 ft 461 kts 197°
2026-04-28 15:49 45.33030 -13.83939 37134 ft 461 kts 197°
2026-04-28 15:49 45.26963 -13.86903 37133 ft 461 kts 197°
2026-04-28 15:50 45.20900 -13.89859 37108 ft 461 kts 197°
2026-04-28 15:50 45.14828 -13.92813 37118 ft 462 kts 197°
2026-04-28 15:51 45.08789 -13.95744 37122 ft 462 kts 197°
2026-04-28 15:51 45.02701 -13.98693 37120 ft 462 kts 197°
2026-04-28 15:52 44.96619 -14.01731 37098 ft 464 kts 199°
2026-04-28 15:52 44.90619 -14.05088 37105 ft 465 kts 200°
2026-04-28 15:53 44.84616 -14.08496 37109 ft 465 kts 200°
2026-04-28 15:53 44.78599 -14.11861 37123 ft 465 kts 199°
2026-04-28 15:54 44.72577 -14.15191 37097 ft 465 kts 200°
2026-04-28 15:54 44.66580 -14.18491 37106 ft 465 kts 200°
2026-04-28 15:55 44.60553 -14.21800 37094 ft 465 kts 199°
2026-04-28 15:55 44.54526 -14.25103 37094 ft 465 kts 200°
2026-04-28 15:56 44.48505 -14.28396 37095 ft 464 kts 200°
2026-04-28 15:56 44.42483 -14.31682 37088 ft 464 kts 199°
2026-04-28 15:57 44.36466 -14.34958 37077 ft 464 kts 199°
2026-04-28 15:57 44.30451 -14.38226 37085 ft 463 kts 199°
2026-04-28 15:58 44.24473 -14.41466 37091 ft 463 kts 199°
2026-04-28 15:58 44.18458 -14.44720 37076 ft 464 kts 200°
2026-04-28 15:59 44.13418 -14.47441 37068 ft 464 kts 199°
2026-04-28 15:59 44.06417 -14.51212 37080 ft 464 kts 199°
2026-04-28 16:00 44.00394 -14.54448 37076 ft 465 kts 199°
2026-04-28 16:00 43.94346 -14.57691 37078 ft 465 kts 199°
2026-04-28 16:01 43.88343 -14.60903 37070 ft 465 kts 200°
2026-04-28 16:01 43.82302 -14.64128 37060 ft 466 kts 199°
2026-04-28 16:02 43.76234 -14.67360 37071 ft 466 kts 199°
2026-04-28 16:02 43.70169 -14.70584 37071 ft 467 kts 200°
2026-04-28 16:03 43.65128 -14.73259 37065 ft 467 kts 200°
2026-04-28 16:03 43.59057 -14.76473 37056 ft 467 kts 199°
2026-04-28 16:04 43.51994 -14.80203 37058 ft 468 kts 200°
2026-04-28 16:04 43.46934 -14.82870 37065 ft 468 kts 199°
2026-04-28 16:05 43.40852 -14.86069 37068 ft 468 kts 200°
2026-04-28 16:05 43.34764 -14.89265 37063 ft 468 kts 200°
2026-04-28 16:06 43.28678 -14.92452 37040 ft 468 kts 199°
2026-04-28 16:06 43.22592 -14.95633 37039 ft 468 kts 200°
2026-04-28 16:07 43.16505 -14.98807 37057 ft 468 kts 200°
2026-04-28 16:08 43.07364 -15.03562 37045 ft 468 kts 200°
2026-04-28 16:08 43.01307 -15.06704 37056 ft 469 kts 200°
2026-04-28 16:09 42.92136 -15.11449 37038 ft 469 kts 200°
2026-04-28 16:10 42.82959 -15.16181 37032 ft 470 kts 200°
2026-04-28 16:10 42.73809 -15.20885 37041 ft 471 kts 200°
2026-04-28 16:11 42.61542 -15.27168 37025 ft 471 kts 200°
2026-04-28 16:12 42.52375 -15.31846 37022 ft 471 kts 200°
2026-04-28 16:13 42.43183 -15.36522 37035 ft 470 kts 200°
2026-04-28 16:14 42.30927 -15.42735 37030 ft 470 kts 200°
2026-04-28 16:15 42.18698 -15.48908 37039 ft 468 kts 200°
2026-04-28 16:15 42.12588 -15.51983 37033 ft 468 kts 201°
2026-04-28 16:16 42.03438 -15.56577 37036 ft 467 kts 201°
2026-04-28 16:17 41.97161 -15.58792 37029 ft 467 kts 185°
2026-04-28 16:17 41.93962 -15.59153 37040 ft 467 kts 184°
2026-04-28 16:17 41.87478 -15.59770 37028 ft 467 kts 184°
2026-04-28 16:18 41.80997 -15.60407 37024 ft 468 kts 185°
2026-04-28 16:18 41.74501 -15.61095 37039 ft 468 kts 185°
2026-04-28 16:19 41.67989 -15.61806 37024 ft 469 kts 185°
2026-04-28 16:19 41.61514 -15.62515 37021 ft 469 kts 185°
2026-04-28 16:20 41.54994 -15.63227 37032 ft 470 kts 185°
2026-04-28 16:20 41.48473 -15.63936 37021 ft 470 kts 185°
2026-04-28 16:21 41.41951 -15.64643 37009 ft 470 kts 186°
2026-04-28 16:21 41.35421 -15.65350 37026 ft 470 kts 186°
2026-04-28 16:22 41.28896 -15.66054 37018 ft 470 kts 186°
2026-04-28 16:22 41.22414 -15.66753 37022 ft 470 kts 186°
2026-04-28 16:23 41.15881 -15.67456 37021 ft 470 kts 186°
2026-04-28 16:23 41.09364 -15.68155 37013 ft 470 kts 187°
2026-04-28 16:24 41.02839 -15.68854 37027 ft 470 kts 187°
2026-04-28 16:24 40.96313 -15.69553 37023 ft 471 kts 187°
2026-04-28 16:25 40.89813 -15.70246 37014 ft 471 kts 187°
2026-04-28 16:25 40.83266 -15.70944 37020 ft 471 kts 187°
2026-04-28 16:26 40.76725 -15.71639 37029 ft 472 kts 187°
2026-04-28 16:26 40.70182 -15.72333 37027 ft 472 kts 187°
2026-04-28 16:27 40.63626 -15.73027 37014 ft 473 kts 188°
2026-04-28 16:28 40.53816 -15.74063 37026 ft 474 kts 188°
2026-04-28 16:28 40.47236 -15.74757 37011 ft 475 kts 188°
2026-04-28 16:29 40.37350 -15.75796 37026 ft 476 kts 188°
2026-04-28 16:30 40.27435 -15.76835 37021 ft 477 kts 188°
2026-04-28 16:30 40.20816 -15.77526 37025 ft 477 kts 189°
2026-04-28 16:31 40.14200 -15.78216 37022 ft 477 kts 189°
2026-04-28 16:31 40.07623 -15.78901 37026 ft 477 kts 189°
2026-04-28 16:32 40.01007 -15.79589 37022 ft 476 kts 189°
2026-04-28 16:32 39.91107 -15.80615 37033 ft 475 kts 189°
2026-04-28 16:33 39.85633 -15.81181 37033 ft 474 kts 189°
2026-04-28 16:33 39.77936 -15.81976 37021 ft 473 kts 189°
2026-04-28 16:34 39.71372 -15.82652 37031 ft 473 kts 189°
2026-04-28 16:34 39.64858 -15.83322 37030 ft 472 kts 189°
2026-04-28 16:35 39.58267 -15.83999 37032 ft 472 kts 189°
2026-04-28 16:35 39.51763 -15.84665 37033 ft 472 kts 189°
2026-04-28 16:36 39.45219 -15.85334 37033 ft 472 kts 189°
2026-04-28 16:36 39.38675 -15.86002 37033 ft 472 kts 189°
2026-04-28 16:37 39.32122 -15.86670 37029 ft 472 kts 189°
2026-04-28 16:38 39.22293 -15.87669 37034 ft 473 kts 189°
2026-04-28 16:38 39.15772 -15.88331 37033 ft 473 kts 189°
2026-04-28 16:39 39.09207 -15.88995 37032 ft 473 kts 189°
2026-04-28 16:39 39.02628 -15.89659 37036 ft 474 kts 189°
2026-04-28 16:40 38.96047 -15.90323 37034 ft 474 kts 189°
2026-04-28 16:40 38.89461 -15.90986 37025 ft 474 kts 189°
2026-04-28 16:41 38.82883 -15.91646 37040 ft 474 kts 189°
2026-04-28 16:41 38.76303 -15.92306 37034 ft 474 kts 189°
2026-04-28 16:42 38.69767 -15.92960 37016 ft 474 kts 189°
2026-04-28 16:42 38.63196 -15.93616 37036 ft 474 kts 189°
2026-04-28 16:43 38.56622 -15.94272 37042 ft 473 kts 189°
2026-04-28 16:43 38.50051 -15.94926 37041 ft 473 kts 189°
2026-04-28 16:44 38.43488 -15.95578 37030 ft 473 kts 189°
2026-04-28 16:44 38.36918 -15.96229 37037 ft 473 kts 189°
2026-04-28 16:45 38.30351 -15.96880 37045 ft 473 kts 189°
2026-04-28 16:45 38.23785 -15.97529 37020 ft 474 kts 189°
2026-04-28 16:46 38.17215 -15.98177 37040 ft 474 kts 189°
2026-04-28 16:46 38.10687 -15.98819 37042 ft 474 kts 189°
2026-04-28 16:47 38.04112 -15.99466 37044 ft 475 kts 189°
2026-04-28 16:47 37.97523 -16.00112 37038 ft 474 kts 189°
2026-04-28 16:48 37.90940 -16.00757 37039 ft 475 kts 189°
2026-04-28 16:48 37.84347 -16.01401 37042 ft 475 kts 189°
2026-04-28 16:49 37.77744 -16.02046 37025 ft 476 kts 189°
2026-04-28 16:49 37.71138 -16.02689 37039 ft 476 kts 189°
2026-04-28 16:50 37.64537 -16.03331 37037 ft 476 kts 189°
2026-04-28 16:50 37.57927 -16.03972 37037 ft 476 kts 189°
2026-04-28 16:51 37.51364 -16.04608 37030 ft 476 kts 189°
2026-04-28 16:51 37.44766 -16.05245 37041 ft 475 kts 189°
2026-04-28 16:52 37.38133 -16.05886 37045 ft 475 kts 189°
2026-04-28 16:52 37.31589 -16.06516 37040 ft 475 kts 189°
2026-04-28 16:53 37.25004 -16.07150 37047 ft 474 kts 189°
2026-04-28 16:53 37.18426 -16.07781 37040 ft 474 kts 189°
2026-04-28 16:54 37.11853 -16.08411 37052 ft 473 kts 189°
2026-04-28 16:54 37.05288 -16.09040 37037 ft 473 kts 189°
2026-04-28 16:55 36.98716 -16.09667 37041 ft 472 kts 189°
2026-04-28 16:55 36.92167 -16.10292 37041 ft 472 kts 189°
2026-04-28 16:56 36.86725 -16.10810 37051 ft 472 kts 189°
2026-04-28 16:56 36.79116 -16.11533 37039 ft 471 kts 189°
2026-04-28 16:57 36.73641 -16.12053 37044 ft 471 kts 189°
2026-04-28 16:57 36.67098 -16.12673 37050 ft 471 kts 189°
2026-04-28 16:58 36.60601 -16.13287 37025 ft 471 kts 189°
2026-04-28 16:58 36.54069 -16.13904 37041 ft 470 kts 189°
2026-04-28 16:59 36.47537 -16.14520 37047 ft 470 kts 189°
2026-04-28 16:59 36.41009 -16.15134 37045 ft 470 kts 189°
2026-04-28 17:00 36.34484 -16.15747 37035 ft 470 kts 189°
2026-04-28 17:00 36.28007 -16.16354 37046 ft 469 kts 189°
2026-04-28 17:01 36.21489 -16.16965 37050 ft 469 kts 189°
2026-04-28 17:01 36.14982 -16.17573 37045 ft 469 kts 189°
2026-04-28 17:02 36.08468 -16.18181 37038 ft 469 kts 189°
2026-04-28 17:02 36.01966 -16.18786 37046 ft 469 kts 189°
2026-04-28 17:03 35.92208 -16.19694 37048 ft 469 kts 189°
2026-04-28 17:03 35.85707 -16.20297 37037 ft 468 kts 189°
2026-04-28 17:04 35.75963 -16.21199 37052 ft 468 kts 189°
2026-04-28 17:05 35.66239 -16.22098 37300 ft 470 kts 189°
2026-04-28 17:05 35.62986 -16.22397 37561 ft 468 kts 189°
2026-04-28 17:06 35.56523 -16.22992 38069 ft 464 kts 189°
2026-04-28 17:06 35.53301 -16.23289 38246 ft 464 kts 189°
2026-04-28 17:06 35.46873 -16.23960 38588 ft 463 kts 191°
2026-04-28 17:07 35.43673 -16.24344 38760 ft 462 kts 191°
2026-04-28 17:07 35.40471 -16.24735 38871 ft 462 kts 191°
2026-04-28 17:07 35.34061 -16.25514 39035 ft 464 kts 190°
2026-04-28 17:08 35.27608 -16.26282 39057 ft 467 kts 190°
2026-04-28 17:08 35.21110 -16.27046 39064 ft 471 kts 190°
2026-04-28 17:09 35.14606 -16.27806 39066 ft 474 kts 190°
2026-04-28 17:09 35.08062 -16.28567 39042 ft 469 kts 190°
2026-04-28 17:10 35.01630 -16.29312 39044 ft 462 kts 190°
2026-04-28 17:10 34.95243 -16.30057 39052 ft 460 kts 190°
2026-04-28 17:11 34.88866 -16.30801 39062 ft 460 kts 190°
2026-04-28 17:11 34.82499 -16.31541 39056 ft 460 kts 190°
2026-04-28 17:12 34.76127 -16.32280 39059 ft 461 kts 190°
2026-04-28 17:12 34.69737 -16.33020 39062 ft 462 kts 190°
2026-04-28 17:13 34.63368 -16.33757 39043 ft 463 kts 190°
2026-04-28 17:13 34.56946 -16.34498 39058 ft 464 kts 190°
2026-04-28 17:14 34.50497 -16.35240 39061 ft 465 kts 190°
2026-04-28 17:14 34.44041 -16.35983 39062 ft 466 kts 190°
2026-04-28 17:15 34.37574 -16.36725 39047 ft 467 kts 190°
2026-04-28 17:15 34.31115 -16.37465 39053 ft 466 kts 189°
2026-04-28 17:16 34.24660 -16.38204 39059 ft 465 kts 190°
2026-04-28 17:16 34.18227 -16.38939 39060 ft 464 kts 190°
2026-04-28 17:17 34.11810 -16.39671 39050 ft 463 kts 189°
2026-04-28 17:17 34.05450 -16.40396 39057 ft 461 kts 189°
2026-04-28 17:18 33.99070 -16.41122 39060 ft 460 kts 189°
2026-04-28 17:18 33.92708 -16.41845 39059 ft 459 kts 189°
2026-04-28 17:19 33.86355 -16.42566 39043 ft 458 kts 189°
2026-04-28 17:19 33.80008 -16.43285 39059 ft 457 kts 189°
2026-04-28 17:20 33.74738 -16.43881 39063 ft 457 kts 189°
2026-04-28 17:20 33.67341 -16.44717 39064 ft 457 kts 189°
2026-04-28 17:21 33.60994 -16.45433 39056 ft 458 kts 189°
2026-04-28 17:22 33.51479 -16.46504 39066 ft 458 kts 189°
2026-04-28 17:22 33.45128 -16.47218 39062 ft 459 kts 189°
2026-04-28 17:23 33.35622 -16.48284 39052 ft 460 kts 189°
2026-04-28 17:23 33.29234 -16.48999 39057 ft 460 kts 189°
2026-04-28 17:24 33.22850 -16.49713 39058 ft 460 kts 189°
2026-04-28 17:24 33.16491 -16.50414 39047 ft 461 kts 188°
2026-04-28 17:25 33.06840 -16.50806 39049 ft 463 kts 185°
2026-04-28 17:26 33.00430 -16.50932 39054 ft 462 kts 185°
2026-04-28 17:26 32.93997 -16.51096 39062 ft 461 kts 185°
2026-04-28 17:27 32.87575 -16.51286 39057 ft 461 kts 185°
2026-04-28 17:27 32.81174 -16.51483 39051 ft 460 kts 185°
2026-04-28 17:28 32.74777 -16.51680 39056 ft 459 kts 185°
2026-04-28 17:28 32.65248 -16.51970 39055 ft 458 kts 185°
2026-04-28 17:29 32.58865 -16.52164 39056 ft 458 kts 185°
2026-04-28 17:30 32.49321 -16.52453 39061 ft 457 kts 185°
2026-04-28 17:30 32.39779 -16.52741 39067 ft 458 kts 185°
2026-04-28 17:31 32.30223 -16.53030 39064 ft 458 kts 185°
2026-04-28 17:32 32.20640 -16.53318 39065 ft 459 kts 185°
2026-04-28 17:32 32.14277 -16.53509 39063 ft 460 kts 185°
2026-04-28 17:33 32.07831 -16.53703 39064 ft 461 kts 185°
2026-04-28 17:33 32.02534 -16.53861 39060 ft 461 kts 185°
2026-04-28 17:34 31.95031 -16.54085 39061 ft 461 kts 185°
2026-04-28 17:34 31.88656 -16.54276 39063 ft 460 kts 185°
2026-04-28 17:35 31.82244 -16.54467 39062 ft 460 kts 185°
2026-04-28 17:35 31.75852 -16.54657 39052 ft 459 kts 185°
2026-04-28 17:36 31.69474 -16.54847 39059 ft 458 kts 185°
2026-04-28 17:36 31.63092 -16.55036 39063 ft 457 kts 185°
2026-04-28 17:37 31.56769 -16.55224 39062 ft 457 kts 185°
2026-04-28 17:37 31.50399 -16.55413 39057 ft 456 kts 185°
2026-04-28 17:38 31.44106 -16.55599 39062 ft 455 kts 185°
2026-04-28 17:38 31.37764 -16.55619 39059 ft 457 kts 180°
2026-04-28 17:39 31.31409 -16.54949 39065 ft 458 kts 177°
2026-04-28 17:40 31.21905 -16.53792 39055 ft 457 kts 178°
2026-04-28 17:40 31.15575 -16.53107 39061 ft 457 kts 178°
2026-04-28 17:41 31.09237 -16.52454 39063 ft 457 kts 179°
2026-04-28 17:41 31.02941 -16.51812 39062 ft 457 kts 179°
2026-04-28 17:42 30.96605 -16.51166 39059 ft 457 kts 179°
2026-04-28 17:42 30.90252 -16.50516 39062 ft 457 kts 179°
2026-04-28 17:43 30.83963 -16.49874 39066 ft 456 kts 179°
2026-04-28 17:43 30.77625 -16.49227 39061 ft 457 kts 179°
2026-04-28 17:44 30.71288 -16.48581 39054 ft 456 kts 179°
2026-04-28 17:44 30.64954 -16.47936 39065 ft 456 kts 179°
2026-04-28 17:45 30.58756 -16.46403 39078 ft 461 kts 164°
2026-04-28 17:45 30.52696 -16.43897 39069 ft 462 kts 163°
2026-04-28 17:46 30.46644 -16.41387 39038 ft 461 kts 163°
2026-04-28 17:46 30.40621 -16.38944 39057 ft 460 kts 164°
2026-04-28 17:47 30.34565 -16.36520 39055 ft 460 kts 164°
2026-04-28 17:47 30.28518 -16.34108 39073 ft 459 kts 164°
2026-04-28 17:48 30.22510 -16.31715 39060 ft 459 kts 164°
2026-04-28 17:48 30.16464 -16.29308 39060 ft 459 kts 164°
2026-04-28 17:49 30.10433 -16.26909 39061 ft 458 kts 164°
2026-04-28 17:49 30.05402 -16.24911 38875 ft 462 kts 164°
2026-04-28 17:49 30.02342 -16.23699 38343 ft 466 kts 164°
2026-04-28 17:50 29.99278 -16.22483 37847 ft 462 kts 164°
2026-04-28 17:50 29.96253 -16.21283 37486 ft 457 kts 164°
2026-04-28 17:50 29.93246 -16.20090 37058 ft 453 kts 164°
2026-04-28 17:50 29.90318 -16.18929 36716 ft 448 kts 164°
2026-04-28 17:51 29.87373 -16.17764 36330 ft 445 kts 163°
2026-04-28 17:51 29.84453 -16.16609 35960 ft 441 kts 163°
2026-04-28 17:51 29.81557 -16.15465 35576 ft 438 kts 163°
2026-04-28 17:51 29.78677 -16.14328 35198 ft 436 kts 163°
2026-04-28 17:52 29.75816 -16.13200 34820 ft 433 kts 163°
2026-04-28 17:52 29.73001 -16.12090 34448 ft 431 kts 163°
2026-04-28 17:52 29.67343 -16.09861 33628 ft 428 kts 163°
2026-04-28 17:53 29.64528 -16.08753 33248 ft 425 kts 163°
2026-04-28 17:53 29.61743 -16.07657 32861 ft 423 kts 163°
2026-04-28 17:53 29.58968 -16.06565 32486 ft 420 kts 163°
2026-04-28 17:53 29.56209 -16.05481 32120 ft 418 kts 163°
2026-04-28 17:54 29.53463 -16.04403 31761 ft 415 kts 163°
2026-04-28 17:54 29.50764 -16.03343 31398 ft 413 kts 163°
2026-04-28 17:54 29.48041 -16.02275 31044 ft 411 kts 163°
2026-04-28 17:54 29.45343 -16.01217 30693 ft 409 kts 163°
2026-04-28 17:55 29.42647 -16.00160 30339 ft 408 kts 163°
2026-04-28 17:55 29.39969 -15.99111 29957 ft 406 kts 163°
2026-04-28 17:55 29.37294 -15.98064 29541 ft 404 kts 163°
2026-04-28 17:55 29.34638 -15.97025 29158 ft 401 kts 163°
2026-04-28 17:56 29.32027 -15.96004 28785 ft 399 kts 163°
2026-04-28 17:56 29.29414 -15.94983 28415 ft 396 kts 163°
2026-04-28 17:56 29.26810 -15.93966 28049 ft 393 kts 163°
2026-04-28 17:56 29.24221 -15.92955 27694 ft 391 kts 163°
2026-04-28 17:57 29.21648 -15.91951 27330 ft 389 kts 163°
2026-04-28 17:57 29.19096 -15.90956 26972 ft 386 kts 163°
2026-04-28 17:57 29.16584 -15.89977 26628 ft 384 kts 163°
2026-04-28 17:57 29.14064 -15.88995 26271 ft 383 kts 163°
2026-04-28 17:58 29.11546 -15.88015 25924 ft 381 kts 163°
2026-04-28 17:58 29.09045 -15.87042 25578 ft 379 kts 163°
2026-04-28 17:58 29.06548 -15.86070 25231 ft 378 kts 163°
2026-04-28 17:58 29.04065 -15.85105 24873 ft 377 kts 163°
2026-04-28 17:59 29.01585 -15.84142 24529 ft 376 kts 163°
2026-04-28 17:59 28.99110 -15.83180 24159 ft 375 kts 163°
2026-04-28 17:59 28.96638 -15.82221 23810 ft 374 kts 163°
2026-04-28 17:59 28.94173 -15.81265 23430 ft 374 kts 162°
2026-04-28 18:00 28.91714 -15.80311 23043 ft 372 kts 162°
2026-04-28 18:00 28.89301 -15.79376 22688 ft 370 kts 162°
2026-04-28 18:00 28.86873 -15.78435 22330 ft 368 kts 163°
2026-04-28 18:00 28.84460 -15.77500 21988 ft 365 kts 163°
2026-04-28 18:01 28.82063 -15.76573 21650 ft 363 kts 162°
2026-04-28 18:01 28.79678 -15.75650 21315 ft 361 kts 162°
2026-04-28 18:01 28.77302 -15.74731 20974 ft 359 kts 162°
2026-04-28 18:01 28.74938 -15.73818 20640 ft 357 kts 162°
2026-04-28 18:02 28.72593 -15.72912 20309 ft 355 kts 162°
2026-04-28 18:02 28.70257 -15.72010 19978 ft 354 kts 162°
2026-04-28 18:02 28.67956 -15.71122 19652 ft 352 kts 162°
2026-04-28 18:02 28.65640 -15.70229 19330 ft 351 kts 162°
2026-04-28 18:03 28.63335 -15.69340 18995 ft 349 kts 162°
2026-04-28 18:03 28.61036 -15.68454 18648 ft 348 kts 162°
2026-04-28 18:03 28.58746 -15.67572 18333 ft 347 kts 162°
2026-04-28 18:03 28.56460 -15.66692 17952 ft 346 kts 162°
2026-04-28 18:04 28.54189 -15.65817 17613 ft 344 kts 163°
2026-04-28 18:04 28.51927 -15.64947 17266 ft 342 kts 162°
2026-04-28 18:04 28.49681 -15.64083 16944 ft 339 kts 163°
2026-04-28 18:04 28.47443 -15.63223 16619 ft 337 kts 163°
2026-04-28 18:05 28.45226 -15.62371 16293 ft 336 kts 163°
2026-04-28 18:05 28.43763 -15.61809 16080 ft 334 kts 163°
2026-04-28 18:05 28.40853 -15.60692 15668 ft 332 kts 163°
2026-04-28 18:05 28.38672 -15.59855 15353 ft 330 kts 162°
2026-04-28 18:06 28.36502 -15.59023 15040 ft 328 kts 162°
2026-04-28 18:06 28.34347 -15.58196 14729 ft 326 kts 162°
2026-04-28 18:06 28.32203 -15.57374 14425 ft 325 kts 163°
2026-04-28 18:06 28.30065 -15.56554 14115 ft 323 kts 163°
2026-04-28 18:07 28.27998 -15.55554 13822 ft 323 kts 154°
2026-04-28 18:07 28.26038 -15.54345 13522 ft 320 kts 152°
2026-04-28 18:07 28.24106 -15.53096 13224 ft 318 kts 152°
2026-04-28 18:07 28.22197 -15.51868 12933 ft 314 kts 152°
2026-04-28 18:08 28.20296 -15.50663 12649 ft 312 kts 153°
2026-04-28 18:08 28.18399 -15.49478 12387 ft 310 kts 154°
2026-04-28 18:08 28.16540 -15.48327 12126 ft 309 kts 154°
2026-04-28 18:08 28.14625 -15.47147 11853 ft 309 kts 154°
2026-04-28 18:09 28.12735 -15.45985 11589 ft 308 kts 154°
2026-04-28 18:09 28.10849 -15.44828 11327 ft 308 kts 154°
2026-04-28 18:09 28.08970 -15.43676 11057 ft 308 kts 153°
2026-04-28 18:09 28.07105 -15.42563 10785 ft 306 kts 159°
2026-04-28 18:10 28.05048 -15.42157 10506 ft 298 kts 187°
2026-04-28 18:10 28.03074 -15.42730 10273 ft 292 kts 203°
2026-04-28 18:10 28.01083 -15.43178 9951 ft 296 kts 181°
2026-04-28 18:10 27.99035 -15.43084 9672 ft 294 kts 181°
2026-04-28 18:11 27.96985 -15.43053 9362 ft 293 kts 182°
2026-04-28 18:11 27.94954 -15.43065 9088 ft 291 kts 184°
2026-04-28 18:11 27.92939 -15.43089 8839 ft 288 kts 183°
2026-04-28 18:11 27.90947 -15.43117 8581 ft 285 kts 184°
2026-04-28 18:12 27.88968 -15.43143 8325 ft 283 kts 182°
2026-04-28 18:12 27.87016 -15.43169 8089 ft 279 kts 183°
2026-04-28 18:12 27.85083 -15.43195 7840 ft 277 kts 184°
2026-04-28 18:12 27.83166 -15.43235 7607 ft 273 kts 187°
2026-04-28 18:13 27.81359 -15.43756 7363 ft 266 kts 205°
2026-04-28 18:13 27.79653 -15.44538 7145 ft 263 kts 204°
2026-04-28 18:13 27.77959 -15.45304 6913 ft 262 kts 203°
2026-04-28 18:13 27.76266 -15.46054 6684 ft 260 kts 202°
2026-04-28 18:14 27.74583 -15.46787 6458 ft 258 kts 202°
2026-04-28 18:14 27.72909 -15.47511 6220 ft 257 kts 202°
2026-04-28 18:14 27.71268 -15.48219 5989 ft 255 kts 202°
2026-04-28 18:14 27.69593 -15.48861 5747 ft 254 kts 190°
2026-04-28 18:15 27.67855 -15.48651 5525 ft 253 kts 156°
2026-04-28 18:15 27.66453 -15.47523 5308 ft 246 kts 128°
2026-04-28 18:15 27.65773 -15.45838 5060 ft 233 kts 90°
2026-04-28 18:15 27.66165 -15.44156 4903 ft 219 kts 50°
2026-04-28 18:16 27.67372 -15.43252 4736 ft 210 kts
2026-04-28 18:16 27.68828 -15.43254 4490 ft 211 kts 353°
2026-04-28 18:16 27.70290 -15.43463 4114 ft 209 kts 352°
2026-04-28 18:16 27.71696 -15.43680 3886 ft 199 kts 352°
2026-04-28 18:17 27.73031 -15.43889 3879 ft 191 kts 351°
2026-04-28 18:17 27.74360 -15.44101 3883 ft 195 kts 351°
2026-04-28 18:17 27.75706 -15.44319 3864 ft 196 kts 351°
2026-04-28 18:17 27.77070 -15.44541 3552 ft 200 kts 351°
2026-04-28 18:18 27.78437 -15.44761 3131 ft 196 kts 353°
2026-04-28 18:18 27.79760 -15.44633 2769 ft 190 kts 20°
2026-04-28 18:18 27.80955 -15.44038 2396 ft 186 kts 18°
2026-04-28 18:18 27.81742 -15.43718 2253 ft 177 kts 18°
2026-04-28 18:19 27.83204 -15.43093 1926 ft 159 kts 19°
2026-04-28 18:19 27.84198 -15.42653 1731 ft 154 kts 19°
2026-04-28 18:19 27.85192 -15.42213 1512 ft 152 kts 19°
2026-04-28 18:19 27.86155 -15.41784 1306 ft 145 kts 18°
2026-04-28 18:20 27.87077 -15.41371 1126 ft 141 kts 19°
2026-04-28 18:20 27.87978 -15.40974 916 ft 139 kts 21°
2026-04-28 18:20 27.88880 -15.40558 730 ft 142 kts 21°
2026-04-28 18:20 27.89806 -15.40148 568 ft 143 kts 21°
2026-04-28 18:21 27.90735 -15.39739 391 ft 143 kts 21°
2026-04-28 18:21 27.91642 -15.39346 213 ft 138 kts 22°
2026-04-28 18:21 27.92524 -15.38949 65 ft 130 kts 21°
2026-04-28 18:21 27.93231 -15.38643 56 ft 87 kts 21°
2026-04-28 18:22 27.93652 -15.38455 54 ft 35 kts 21°
2026-04-28 18:22 27.93861 -15.38434 63 ft 18 kts 356°
2026-04-28 18:22 27.93976 -15.38451 70 ft 13 kts 340°
2026-04-28 18:22 27.94000 -15.38507 74 ft 6 kts 229°
2026-04-28 18:23 27.93954 -15.38518 75 ft 10 kts 186°
2026-04-28 18:23 27.93856 -15.38557 73 ft 20 kts 202°
2026-04-28 18:23 27.93750 -15.38604 75 ft 13 kts 201°
2026-04-28 18:23 27.93665 -15.38640 77 ft 13 kts 201°
2026-04-28 18:24 27.93584 -15.38675 72 ft 13 kts 201°
2026-04-28 18:24 27.93529 -15.38700 70 ft 12 kts 201°
2026-04-28 18:24 27.93428 -15.38751 66 ft 12 kts 230°
2026-04-28 18:24 27.93438 -15.38837 84 ft 10 kts 291°
2026-04-28 18:25 27.93493 -15.38874 82 ft 10 kts
2026-04-28 18:25 27.93549 -15.38870 84 ft 8 kts 330°
2026-04-28 18:25 27.93568 -15.38923 87 ft 4 kts 290°
2026-04-28 18:26 27.93575 -15.38941 85 ft 0 kts 291°
2026-04-28 18:27 27.93576 -15.38943 85 ft 0 kts 291°
2026-04-28 19:44 27.93572 -15.38932 89 ft 4 kts 289°
2026-04-28 19:44 27.93565 -15.38903 88 ft 4 kts 281°
2026-04-28 19:45 27.93562 -15.38873 87 ft 4 kts 263°
2026-04-28 19:45 27.93570 -15.38849 88 ft 4 kts 210°
2026-04-28 19:45 27.93574 -15.38846 83 ft 1 kts 202°
2026-04-28 19:47 27.93568 -15.38849 82 ft 2 kts 202°